Tacoma, WA

5:40 PM PDT on March 28, 2017 (GMT -0700)
McChord Air Force Base

Weather History for KTCM - November, 2012

Change the Weather History Date:

Thursday, November 1, 2012

  Actual Average Record
Temperature  
Mean Temperature 54 °F -  
Max Temperature 59 °F 53 °F 66 °F (1981)
Min Temperature 50 °F 34 °F 17 °F (2002)
Degree Days  
Heating Degree Days 11    
Growing Degree Days 4 (Base 50)    
Moisture  
Dew Point 52 °F    
Average Humidity 93    
Maximum Humidity 100    
Minimum Humidity 77    
Precipitation  
Precipitation 0.53 in - - ()
Sea Level Pressure  
Sea Level Pressure 29.88 in    
Wind  
Wind Speed 6 mph (South)    
Max Wind Speed 13 mph    
Max Gust Speed 20 mph    
Visibility 9 miles    
Events Rain    
Averages and records for this station are not official NWS values.
T = Trace of Precipitation, MM = Missing Value Source: NWS Daily Summary

Daily Weather History Graph

Daily Weather History Graph

Search for Another Location

Airport or City:

Trip Planner

Search our weather history database for the weather conditions in past years. The results will help you decide how hot, cold, wet, or windy it might be!

Date:

Astronomy

Nov. 01, 2012 Rise Set
Actual Time 7:53 AM PDT 5:52 PM PDT
Civil Twilight 7:21 AM PDT 6:24 PM PDT
Nautical Twilight 6:45 AM PDT 7:00 PM PDT
Astronomical Twilight 6:10 AM PDT 7:35 PM PDT
Moon 7:45 PM PDT (11/1) 10:39 AM PDT (11/1)
Length of Visible Light 11h 02m
Length of Day
9h 58m
Waning Gibbous, 92% of the Moon is Illuminated
Nov 1
Waning Gibbous
Nov 6
Last Quarter
Nov 13
New
Nov 20
First Quarter
Nov 28
Full

Hourly Weather History & Observations

Time (PDT) Temp. Dew Point Humidity Pressure Visibility Wind Dir Wind Speed Gust Speed Precip Events Conditions
1:58 AM 51.8 °F 50.7 °F 96% 29.74 in 5.0 mi East 4.6 mph - 0.03 in Rain Light Rain
2:58 AM 51.4 °F 51.3 °F 99% 29.74 in 5.0 mi NE 1.2 mph - 0.08 in Rain Rain
3:27 AM 51.8 °F 51.8 °F 100% 29.73 in 6.0 mi East 5.8 mph - N/A Rain Rain
3:36 AM 51.8 °F 51.8 °F 100% 29.73 in 6.0 mi East 5.8 mph - N/A Rain Rain
3:52 AM 51.8 °F 51.8 °F 100% 29.74 in 7.0 mi ESE 10.4 mph - N/A Rain Light Rain
3:58 AM 51.4 °F 51.1 °F 99% 29.76 in 8.0 mi SSE 11.5 mph - 0.13 in Rain Light Rain
4:38 AM 51.8 °F 50.0 °F 94% 29.76 in 10.0 mi South 10.4 mph - N/A Rain Light Rain
4:58 AM 51.4 °F 50.9 °F 98% 29.77 in 10.0 mi SSW 5.8 mph - 0.04 in Rain Light Rain
5:58 AM 50.5 °F 50.4 °F 99% 29.78 in 9.0 mi ESE 3.5 mph - 0.02 in Rain Light Rain
6:33 AM 50.0 °F 50.0 °F 100% 29.77 in 5.0 mi East 4.6 mph - N/A Rain Light Rain
6:53 AM 50.0 °F 50.0 °F 100% 29.77 in 10.0 mi East 3.5 mph - N/A Rain Light Rain
6:58 AM 50.7 °F 50.4 °F 99% 29.78 in 10.0 mi ESE 2.3 mph - 0.10 in Rain Light Rain
7:18 AM 50.0 °F 50.0 °F 100% 29.77 in 6.0 mi ESE 4.6 mph - N/A Rain Light Rain
7:47 AM 50.0 °F 50.0 °F 100% 29.77 in 10.0 mi East 5.8 mph - N/A   Overcast
7:58 AM 50.9 °F 50.7 °F 99% 29.78 in 10.0 mi East 5.8 mph - 0.03 in   Overcast
8:23 AM 51.8 °F 50.0 °F 94% 29.78 in 10.0 mi Calm Calm - N/A Rain Light Rain
8:33 AM 51.8 °F 50.0 °F 94% 29.78 in 10.0 mi Calm Calm - N/A   Overcast
8:58 AM 51.4 °F 51.1 °F 99% 29.81 in 10.0 mi Calm Calm - 0.00 in   Overcast
9:55 AM 52.5 °F 52.3 °F 99% 29.81 in 10.0 mi Calm Calm - N/A   Overcast
10:58 AM 55.2 °F 52.0 °F 89% 29.83 in 10.0 mi NW 2.3 mph - N/A   Overcast
11:58 AM 55.9 °F 51.1 °F 84% 29.86 in 10.0 mi SSW 4.6 mph - N/A   Overcast
12:58 PM 58.6 °F 51.4 °F 77% 29.87 in 10.0 mi SSW 11.5 mph - N/A   Overcast
1:08 PM 57.2 °F 51.8 °F 82% 29.87 in 10.0 mi SW 12.7 mph - N/A   Overcast
1:33 PM 57.2 °F 51.8 °F 82% 29.89 in 10.0 mi SW 9.2 mph 19.6 mph N/A   Overcast
1:58 PM 56.8 °F 50.9 °F 80% 29.91 in 10.0 mi SSW 8.1 mph - N/A   Overcast
2:58 PM 57.0 °F 51.1 °F 81% 29.91 in 10.0 mi South 8.1 mph - N/A   Overcast
3:24 PM 57.2 °F 51.8 °F 82% 29.91 in 10.0 mi South 8.1 mph - N/A Rain Light Rain
3:29 PM 57.2 °F 51.8 °F 82% 29.91 in 10.0 mi SSW 9.2 mph - N/A Rain Light Rain
3:53 PM 55.4 °F 51.8 °F 88% 29.91 in 10.0 mi South 5.8 mph - N/A   Overcast
3:58 PM 56.1 °F 52.3 °F 87% 29.93 in 10.0 mi South 5.8 mph - 0.01 in   Overcast
4:53 PM 57.2 °F 51.8 °F 82% 29.92 in 10.0 mi South 4.6 mph - N/A   Overcast
4:58 PM 56.7 °F 52.3 °F 85% 29.94 in 10.0 mi South 5.8 mph - N/A   Overcast
5:18 PM 57.2 °F 53.6 °F 88% 29.92 in 10.0 mi South 3.5 mph - N/A Rain Light Rain
5:39 PM 55.4 °F 53.6 °F 94% 29.93 in 4.0 mi SW 4.6 mph - N/A Rain Light Rain
5:44 PM 55.4 °F 53.6 °F 94% 29.93 in 2.5 mi SW 4.6 mph - N/A Rain Rain
5:49 PM 55.4 °F 53.6 °F 94% 29.93 in 1.8 mi SW 4.6 mph - N/A Rain Rain
5:54 PM 55.4 °F 53.6 °F 94% 29.93 in 2.0 mi SSW 3.5 mph - N/A Rain Rain
5:58 PM 55.4 °F 53.6 °F 94% 29.94 in 3.0 mi South 4.6 mph - 0.08 in Rain Rain
6:14 PM 55.4 °F 53.6 °F 94% 29.94 in 9.0 mi South 6.9 mph - N/A   Overcast
6:37 PM 55.4 °F 53.6 °F 94% 29.95 in 10.0 mi SSW 10.4 mph - N/A Rain Light Rain
6:46 PM 55.4 °F 53.6 °F 94% 29.96 in 10.0 mi SSW 10.4 mph - N/A   Overcast
6:58 PM 54.5 °F 53.1 °F 95% 29.98 in 8.0 mi SSW 8.1 mph - 0.01 in   Overcast
7:13 PM 53.6 °F 53.6 °F 100% 29.97 in 10.0 mi South 6.9 mph - N/A   Overcast
7:38 PM 55.4 °F 53.6 °F 94% 29.98 in 10.0 mi SSW 8.1 mph - N/A   Overcast
7:58 PM 54.3 °F 52.7 °F 94% 29.99 in 10.0 mi South 6.9 mph - N/A   Overcast
8:58 PM 53.1 °F 52.9 °F 99% 30.01 in 10.0 mi SSE 4.6 mph - N/A   Overcast
9:23 PM 53.6 °F 51.8 °F 94% 30.01 in 10.0 mi South 6.9 mph - N/A   Overcast
9:58 PM 54.3 °F 52.0 °F 92% 30.02 in 10.0 mi South 5.8 mph - N/A   Overcast
10:18 PM 53.6 °F 51.8 °F 94% 30.03 in 10.0 mi South 5.8 mph - N/A   Overcast
10:58 PM 52.3 °F 52.2 °F 99% 30.04 in 10.0 mi SSE 5.8 mph - N/A   Overcast
11:58 PM 52.5 °F 52.2 °F 99% 30.04 in 10.0 mi ENE 1.2 mph - N/A   Overcast